Wind_Speed
122 118 115 111 109 106 104 102 101 100 99 98 97 96 96 95 94 94 93 93 93 93 92 92 92 92 92 91 91 91 91 91 91 91 91 91 92 92 93 93 93 92 91 90 89 89 88 89 89 89 89 89 89 89 89 89 88 88 88 88 87 87 87 88 88 88 88 88 88 89 89 90 90 91 93 94 95 97 98 99 98 98 97 96 96 97
115 112 109 106 104 102 101 100 99 98 97 96 95 93 93 92 92 91 91 91 91 91 91 90 90 90 89 89 89 89 89 89 89 89 89 89 90 90 91 91 91 90 89 88 88 87 87 86 87 87 86 86 86 86 86 86 86 86 85 85 85 85 85 85 85 85 85 85 86 86 86 86 87 88 89 90 92 93 95 96 97 97 96 95 94 95
110 108 105 102 101 99 99 98 97 96 95 94 93 91 90 89 89 89 89 89 89 89 89 89 88 88 87 87 87 87 87 88 88 87 87 87 87 88 88 89 89 88 88 87 86 85 85 85 84 84 84 84 84 84 84 84 84 84 83 83 82 82 82 82 82 82 83 83 83 83 83 83 84 85 86 87 88 90 91 93 95 95 95 94 93 93
106 104 102 100 98 97 96 96 95 95 94 92 91 89 88 87 87 87 87 87 88 88 88 87 87 86 85 85 85 85 85 86 86 86 86 86 86 86 86 86 87 86 86 85 85 84 83 83 82 82 82 82 82 82 82 82 82 82 81 81 80 79 79 79 79 80 80 80 80 80 80 81 81 82 83 84 85 86 88 90 91 93 93 93 93 92
102 101 99 98 97 96 95 94 94 93 92 91 89 88 87 86 86 85 86 86 86 86 86 86 85 84 84 83 83 83 84 84 84 84 84 84 84 84 84 84 85 85 84 84 83 82 81 81 81 81 80 80 80 80 80 80 80 79 79 78 78 77 77 77 77 77 77 78 78 78 78 78 78 79 80 81 82 83 85 86 88 90 91 92 92 91
100 98 97 97 96 94 93 92 92 91 90 89 88 87 86 86 85 85 85 85 85 85 84 84 83 82 82 81 81 81 82 82 82 82 82 82 82 82 82 82 83 83 82 82 81 81 80 79 79 79 78 78 78 77 77 77 77 77 77 76 75 75 74 74 74 75 75 75 75 75 75 76 76 77 77 78 79 80 81 83 85 86 88 89 90 90
98 96 96 95 94 93 92 90 90 89 88 87 86 85 85 85 85 85 85 84 84 83 83 82 81 80 80 80 80 80 80 80 80 80 80 80 80 80 80 80 81 81 81 80 80 79 78 77 77 77 76 76 75 75 75 75 75 74 74 73 73 72 72 72 72 72 73 73 73 73 73 74 74 74 75 76 76 77 78 80 81 83 85 87 88 89
96 95 94 93 92 91 90 89 88 87 87 86 85 84 84 84 84 84 84 84 83 82 81 80 79 78 78 78 78 78 78 78 78 77 78 78 78 78 78 78 78 79 79 78 78 77 76 75 75 75 74 74 73 73 72 72 72 72 71 71 70 70 70 70 70 70 70 71 71 71 71 72 72 72 73 73 74 75 76 77 78 80 82 83 85 86
95 94 93 92 91 90 89 87 86 86 85 85 84 84 83 83 82 82 82 82 82 81 80 78 77 76 76 76 76 76 76 75 75 75 75 75 76 76 76 76 76 76 76 76 76 75 74 73 73 72 72 71 71 71 70 70 70 69 69 69 68 68 68 68 68 68 68 68 69 69 69 70 70 70 71 71 72 72 73 74 75 77 79 81 82 84
94 93 91 90 89 88 87 86 85 84 84 84 84 83 83 82 81 80 80 79 79 79 78 77 75 74 74 74 74 74 73 73 72 72 72 73 73 73 73 73 74 74 74 74 73 73 72 71 70 69 69 69 69 68 68 68 67 67 67 67 66 66 66 66 66 66 66 66 66 67 67 67 68 68 69 69 70 70 71 72 73 75 77 78 80 82
92 91 90 88 87 86 85 84 83 83 83 83 83 82 82 81 80 79 77 76 76 76 76 75 74 73 72 72 72 71 71 70 69 69 69 70 70 71 71 71 71 71 71 71 70 70 69 68 67 67 67 67 67 66 66 66 65 65 65 65 65 64 64 63 63 63 63 64 64 64 65 66 66 67 67 68 68 69 70 71 72 73 75 77 78 80
91 89 88 87 86 84 83 83 82 82 82 82 82 81 81 80 79 77 76 74 73 73 73 72 72 72 71 71 70 68 67 66 66 66 66 67 67 68 68 68 68 68 68 68 67 67 66 65 64 64 64 64 64 64 64 63 63 63 63 62 62 61 61 61 61 61 61 61 62 62 63 64 65 65 66 67 67 68 68 69 71 72 74 75 77 78
88 87 86 85 83 82 82 81 80 80 80 80 80 80 79 78 77 75 74 72 71 70 70 70 70 70 70 69 68 66 64 63 62 63 63 64 65 65 65 65 65 65 65 65 64 64 63 62 62 61 61 62 61 61 61 61 61 60 60 60 59 59 58 58 58 58 59 59 60 61 61 62 63 64 65 65 66 67 67 68 70 71 72 74 75 77
86 85 84 82 81 81 80 80 79 79 79 79 79 78 77 76 75 73 72 70 69 69 68 68 68 68 68 67 65 63 61 59 59 60 61 62 62 62 62 61 61 61 61 61 61 61 60 59 59 59 59 59 59 59 58 58 58 58 57 57 56 55 55 55 55 56 57 57 58 59 60 61 62 63 63 64 65 65 66 67 69 70 71 72 74 75
85 83 82 81 79 79 78 78 78 77 77 77 76 76 75 74 72 71 70 68 67 67 66 66 66 65 65 65 62 60 57 56 57 57 58 59 59 59 59 58 58 58 58 58 58 58 57 56 56 56 56 56 56 56 56 55 55 55 54 54 53 53 53 53 54 54 55 56 57 58 58 59 60 61 62 63 63 64 65 66 68 69 70 71 72 73
82 81 80 79 78 77 77 77 76 76 75 75 74 73 72 71 70 69 67 66 65 64 64 63 63 63 63 62 60 57 54 53 54 55 56 57 57 56 55 54 54 54 55 55 55 55 54 53 53 52 53 53 53 53 53 53 52 52 52 51 51 51 51 52 52 53 54 55 55 56 57 58 59 60 60 61 62 63 64 65 66 68 68 69 70 71
80 79 78 77 76 75 75 75 75 74 73 72 72 71 70 69 67 66 65 64 63 62 61 60 60 59 59 59 57 54 52 51 52 53 54 54 54 52 51 51 51 51 52 52 52 51 50 50 49 49 50 50 50 50 50 50 50 50 49 49 49 49 50 50 51 52 53 53 55 55 56 57 58 58 59 60 61 62 63 64 65 66 67 68 69 70
78 77 77 75 74 74 73 73 73 72 71 70 69 68 67 66 65 63 62 61 60 59 58 57 57 56 56 55 54 51 49 49 49 51 51 51 50 49 48 47 48 49 49 49 49 48 47 47 46 46 47 47 47 48 48 48 48 48 48 48 48 48 49 49 50 51 52 53 54 55 55 56 57 57 58 59 60 61 62 63 64 65 66 66 67 68
76 76 75 74 73 72 72 72 71 71 69 68 66 65 64 63 62 61 60 59 58 56 55 54 53 53 52 52 51 49 47 47 47 48 48 48 47 45 45 45 45 46 46 46 46 45 44 44 44 44 45 45 45 46 46 46 46 46 46 46 46 47 48 48 49 50 51 52 53 54 54 55 55 56 57 58 59 60 61 62 63 63 64 65 66 67
74 74 74 73 72 70 70 70 69 68 67 65 64 62 61 60 60 59 58 56 55 54 53 51 50 49 49 48 48 46 45 45 45 45 45 44 43 42 42 42 43 43 43 43 43 42 42 42 42 42 43 43 44 44 44 44 44 45 45 45 45 46 46 47 48 48 49 50 51 52 53 54 54 55 56 57 58 59 60 61 62 63 63 64 64 65
73 72 72 71 70 69 68 67 67 66 64 63 61 60 59 58 57 56 55 54 53 51 50 48 47 46 46 45 45 44 43 42 42 42 42 41 40 40 40 40 40 41 41 40 40 40 40 40 40 41 41 42 42 42 43 43 43 43 43 44 44 44 45 45 46 47 48 49 50 51 52 53 54 55 55 56 57 58 59 60 61 61 62 63 63 64
72 71 70 69 68 67 66 65 64 63 62 60 59 58 57 56 54 53 52 51 50 48 47 45 44 44 43 43 42 41 41 40 40 39 39 38 38 37 37 38 38 38 38 38 38 38 38 38 39 39 40 40 40 41 41 41 41 41 42 42 42 43 43 44 45 46 47 48 49 50 51 52 53 54 55 56 57 58 59 59 60 61 61 62 62 63
71 70 69 68 66 65 64 63 62 60 59 58 57 55 54 53 52 50 49 48 47 46 44 43 42 41 41 40 40 39 39 38 37 37 36 35 35 35 35 35 36 36 36 36 36 36 36 37 37 38 38 38 39 39 39 39 39 40 40 41 41 42 42 43 44 45 46 47 48 49 50 51 52 53 54 55 56 57 58 58 59 59 60 60 61 62
70 68 67 66 64 63 62 61 59 58 57 55 54 53 52 50 49 47 46 45 44 43 41 40 39 39 38 38 38 37 36 36 35 34 33 33 33 33 33 33 33 34 34 34 34 35 35 35 36 36 36 37 37 37 37 38 38 38 39 40 40 41 42 43 44 45 46 47 48 49 50 51 51 52 53 54 55 56 56 57 58 58 59 59 60 61
68 66 65 63 62 61 60 58 57 56 54 53 52 51 49 48 46 45 43 42 41 40 39 38 37 37 36 36 35 35 34 34 33 32 31 31 31 31 31 31 32 32 32 32 33 33 34 34 34 34 35 35 35 36 36 37 37 38 38 39 39 40 41 42 43 44 45 46 47 48 49 50 51 51 52 53 54 54 55 56 56 57 58 58 59 59
66 64 62 61 60 58 57 56 54 53 52 50 49 48 47 45 44 42 41 40 39 38 37 36 35 35 35 34 34 33 33 32 31 30 29 29 29 29 30 30 30 30 31 31 31 32 32 33 33 33 34 34 35 35 35 36 36 37 38 38 39 40 40 42 42 43 45 46 47 48 48 49 50 51 51 52 53 53 54 54 55 56 56 57 57 58
63 62 60 58 57 56 55 53 52 50 49 47 46 45 44 43 41 40 39 37 37 36 35 34 34 33 33 32 32 32 31 30 29 29 28 27 27 28 28 29 29 29 29 30 30 31 31 32 32 32 33 34 34 34 35 35 36 37 37 38 38 39 40 41 42 43 44 45 46 47 48 49 49 50 50 51 52 52 53 53 54 54 55 55 56 56
61 60 58 56 55 54 52 51 49 48 46 45 44 42 41 40 39 38 37 36 35 34 33 33 32 32 31 31 31 31 30 29 29 28 27 26 26 27 27 27 28 28 28 29 30 30 30 31 31 32 32 33 34 34 34 35 35 36 37 37 38 39 40 41 42 43 44 45 46 47 47 48 48 49 50 50 51 51 52 52 52 53 53 53 54 54
59 57 56 54 53 51 50 49 47 46 44 43 42 40 39 38 37 36 35 34 33 33 32 31 30 30 30 30 30 30 29 29 28 27 26 25 26 26 26 26 27 27 28 28 29 29 30 30 31 31 32 32 33 33 34 34 35 35 36 37 38 39 40 41 42 43 44 44 45 46 46 47 47 48 48 49 49 50 50 51 51 51 51 51 52 53
57 56 54 52 50 49 48 46 45 44 42 41 40 39 38 37 36 35 34 33 32 31 30 30 29 29 28 28 28 28 28 28 27 26 25 25 25 25 25 26 26 26 27 27 28 28 29 29 30 30 31 32 32 32 33 34 34 35 36 37 37 38 39 40 41 42 43 44 44 45 45 46 46 47 47 48 48 48 49 49 49 49 49 50 51 52
55 54 52 50 49 47 46 44 43 42 40 39 38 37 36 36 35 34 33 32 31 30 29 29 28 28 27 27 27 27 27 27 26 25 24 23 24 24 24 24 25 25 26 26 26 27 28 28 29 30 30 31 31 32 32 33 34 34 35 36 37 37 38 39 40 41 42 43 43 44 45 45 45 46 46 46 46 47 47 47 47 48 48 49 50 51
53 52 50 49 47 45 44 42 41 40 39 38 37 36 35 35 34 33 32 31 30 29 28 27 27 26 26 26 26 26 26 25 24 23 22 22 22 22 23 23 23 24 24 25 25 26 27 27 28 29 29 30 30 31 32 32 33 34 34 35 36 37 37 38 39 40 41 42 43 43 43 44 44 44 44 45 45 45 45 45 46 47 47 48 49 50
51 50 48 47 45 44 42 41 39 38 37 37 36 35 34 33 33 32 31 30 29 28 27 26 25 25 25 25 25 25 24 24 23 22 21 21 21 21 21 22 22 22 23 23 24 25 26 26 27 27 28 29 29 30 31 31 32 33 33 34 35 36 37 38 39 40 40 41 41 42 42 42 42 42 43 43 43 43 44 44 45 46 47 47 48 49
49 48 46 45 43 42 40 39 38 37 36 35 35 34 33 32 31 30 29 28 27 26 25 24 24 24 24 23 23 23 23 22 21 20 20 19 20 20 20 20 21 21 22 22 23 24 24 25 26 26 27 27 28 29 30 30 31 32 32 33 34 35 36 37 38 38 39 39 40 40 40 40 40 40 41 41 41 42 42 43 44 44 45 46 47 48
47 45 44 43 41 40 39 38 37 36 35 34 34 33 32 31 30 29 28 26 25 24 23 23 22 22 22 22 22 21 21 20 19 19 18 18 18 19 19 19 20 20 20 21 22 22 23 24 25 26 26 27 28 28 29 30 30 31 31 32 33 34 35 36 36 37 37 38 38 38 38 38 38 39 39 39 40 40 41 41 42 43 44 45 46 47
45 43 42 41 39 38 37 37 36 35 34 33 32 31 30 29 28 27 26 25 23 22 21 21 20 20 20 20 20 19 19 18 17 17 17 17 17 17 18 18 19 19 19 20 21 22 23 24 24 25 26 26 27 28 28 29 29 30 31 31 32 33 34 34 35 35 35 36 36 36 36 36 37 37 37 38 38 39 39 40 41 42 43 44 45 46
43 41 40 39 38 37 36 35 34 34 33 32 31 30 29 28 27 25 24 23 22 21 20 19 19 18 18 18 18 17 17 17 16 16 16 16 16 17 17 17 18 18 19 20 21 21 22 23 24 25 25 26 27 27 28 28 28 29 30 30 31 32 32 33 33 34 34 34 34 34 34 35 35 35 36 36 37 37 38 38 39 40 41 42 43 45
41 40 38 37 36 35 35 34 33 32 31 30 29 28 27 26 25 24 23 22 21 19 18 18 17 17 16 16 16 16 15 15 15 15 15 16 16 16 17 17 18 18 19 20 20 21 22 23 24 25 25 26 26 27 27 27 28 28 29 30 30 31 31 32 32 32 32 32 32 33 33 33 33 34 34 35 35 36 36 37 38 39 40 41 42 43
39 38 37 36 35 34 34 33 32 31 30 29 28 26 25 24 23 22 21 20 19 18 17 17 16 16 15 15 15 15 15 14 14 14 15 15 15 16 16 17 17 18 19 19 20 21 22 23 24 24 25 25 25 26 26 27 27 28 28 29 29 29 30 30 30 31 31 31 31 31 31 32 32 32 33 33 34 34 35 36 37 38 39 40 41 42
37 36 35 34 34 33 32 31 30 29 28 27 26 25 24 23 22 21 20 19 18 17 17 16 15 15 15 14 14 14 14 14 14 14 14 14 14 15 15 16 17 18 18 19 20 21 22 22 23 23 24 24 24 25 25 26 26 27 27 28 28 28 28 29 29 29 29 30 30 30 30 30 31 31 31 32 32 33 34 35 36 37 38 39 41 42
35 34 34 33 32 31 30 30 29 28 26 25 24 23 22 21 20 19 19 18 17 17 16 15 15 14 14 14 14 13 13 13 13 13 13 13 14 14 15 15 16 17 18 18 19 20 21 21 22 22 22 23 23 24 24 25 25 26 26 26 27 27 27 27 28 28 28 29 29 29 29 30 30 30 31 31 32 32 33 34 35 36 37 39 40 41
34 33 32 31 31 30 29 28 27 26 25 24 23 22 21 20 19 18 18 17 16 16 15 15 14 14 13 13 13 13 12 12 12 12 12 13 13 13 14 15 15 16 17 18 18 19 20 20 21 21 21 22 22 23 23 24 24 24 25 25 25 25 26 26 27 27 27 28 28 28 29 29 29 29 30 30 31 32 33 34 35 36 37 38 39 41
32 31 31 30 29 28 27 26 25 24 23 22 21 20 19 19 18 17 17 16 16 15 14 14 13 13 13 12 12 12 12 12 12 12 12 12 12 13 13 14 15 15 16 17 17 18 18 19 19 20 20 21 21 22 22 23 23 23 23 24 24 24 25 25 26 26 27 27 27 28 28 28 28 29 29 30 31 31 32 33 34 36 37 38 39 40
31 30 29 28 27 27 26 25 23 23 22 21 20 19 18 18 17 16 16 15 15 14 14 13 13 12 12 12 12 11 11 11 11 11 11 11 12 12 13 13 14 14 15 16 16 17 17 18 18 19 19 20 20 21 21 22 22 22 23 23 23 23 24 24 25 25 26 26 27 27 27 28 28 29 29 30 30 31 32 33 34 35 36 38 39 40
29 28 27 27 26 25 24 23 22 21 20 19 19 18 17 16 16 15 15 14 14 13 13 12 12 12 11 11 11 11 11 11 10 10 11 11 11 11 12 12 13 13 14 15 15 16 16 17 17 18 18 19 19 20 20 21 21 21 22 22 23 23 24 24 24 25 26 26 26 27 27 27 28 28 29 30 30 31 32 33 34 35 37 38 39 40
27 27 26 25 24 23 22 21 21 20 19 18 17 17 16 15 15 14 14 13 13 13 12 12 11 11 11 10 10 10 10 10 10 10 10 10 10 11 11 11 12 13 13 13 14 15 15 16 16 17 17 18 18 19 19 20 20 21 21 22 22 23 23 24 24 25 25 26 26 26 26 27 27 28 29 29 30 31 32 33 34 35 37 38 39 40
26 25 24 23 23 22 21 20 19 19 18 17 17 16 15 15 14 14 13 13 12 12 12 11 11 10 10 10 10 9 9 9 9 9 9 9 10 10 10 11 11 12 12 13 13 14 14 15 15 16 16 17 18 18 18 19 19 20 20 21 22 22 23 24 24 25 25 25 26 26 26 27 27 28 29 30 31 32 33 33 34 35 37 38 39 40
24 23 23 22 21 20 20 19 19 18 17 16 16 15 15 14 13 13 12 12 12 11 11 11 10 10 10 9 9 9 8 8 8 8 8 9 9 9 10 10 11 11 12 12 13 13 14 14 15 15 16 16 17 17 18 18 18 19 20 20 21 22 23 23 24 24 25 25 25 25 26 27 27 28 29 30 31 32 33 34 35 36 37 38 39 40
23 22 21 21 20 19 19 18 18 17 17 16 15 15 14 13 13 12 12 11 11 11 11 10 10 10 9 9 8 8 8 8 8 8 8 8 8 9 9 10 10 11 11 12 12 13 13 14 14 14 15 15 16 16 17 17 17 18 19 20 21 21 22 23 23 24 24 25 25 26 26 27 28 29 30 30 31 32 33 34 35 36 37 38 39 39
21 21 20 19 19 18 18 18 17 17 16 15 15 14 13 13 12 11 11 11 10 10 10 10 9 9 9 8 8 8 7 7 7 7 7 7 8 8 9 9 10 10 11 11 12 12 13 13 13 14 14 15 15 16 16 16 17 18 18 19 20 21 22 22 23 24 24 24 25 26 26 27 28 29 30 31 32 32 33 34 35 36 37 38 38 40
20 20 19 19 18 18 17 17 16 16 15 15 14 13 13 12 11 11 10 10 9 9 9 9 9 8 8 8 8 7 7 7 7 7 7 7 7 8 8 8 9 9 10 10 11 11 12 12 13 13 14 14 15 15 15 16 17 17 18 19 20 20 21 22 23 23 24 24 25 26 27 28 29 30 30 31 32 33 33 34 35 36 36 37 38 39
Wind_Direction
299 298 298 297 296 295 294 293 293 292 291 290 289 289 288 288 287 287 286 285 284 283 282 281 280 279 278 278 277 276 276 275 274 273 272 272 271 271 271 271 270 270 269 269 268 268 267 266 266 266 265 265 264 264 263 263 262 262 262 261 261 260 260 259 259 258 258 257 257 256 255 255 254 254 254 253 254 254 254 255 255 254 253 252 251 250
299 298 297 297 296 295 295 294 293 292 292 291 290 290 289 289 288 287 286 285 284 283 282 280 280 279 278 278 277 276 276 275 274 273 272 272 271 271 270 270 270 269 269 268 268 267 266 266 265 265 265 264 264 263 263 263 262 262 261 261 260 260 259 259 258 258 258 257 256 256 255 254 254 253 253 252 252 252 253 253 254 254 254 253 252 251
299 298 298 297 296 296 295 295 294 293 293 292 291 290 290 289 288 287 286 285 284 283 282 281 280 279 278 277 277 276 276 275 274 273 272 271 271 270 270 270 269 269 269 268 267 267 266 265 265 264 264 264 263 263 262 262 262 261 261 260 260 259 259 258 258 258 257 257 256 255 255 254 253 253 252 252 251 251 251 251 252 253 253 253 252 251
299 299 298 297 297 296 296 296 295 294 293 293 292 291 290 289 288 287 286 285 284 283 282 281 280 279 278 278 277 276 275 275 274 273 272 271 271 270 269 269 269 268 268 267 267 266 266 265 264 264 263 263 262 262 262 261 261 261 260 260 259 259 258 258 257 257 257 256 256 255 254 254 253 252 251 251 250 250 250 250 250 251 252 252 252 251
299 299 299 298 298 297 297 296 295 295 294 293 293 292 291 290 289 287 286 285 284 283 282 281 280 280 279 278 277 276 275 274 274 273 272 271 270 270 269 269 268 268 267 267 266 266 265 264 264 263 263 262 262 261 261 261 260 260 260 259 259 258 258 257 257 256 256 256 255 254 254 253 252 251 251 250 249 249 249 248 249 249 250 250 251 251
300 300 299 299 298 298 297 297 296 295 295 294 293 293 292 290 289 288 286 285 284 283 282 282 281 281 280 279 278 276 275 274 273 273 272 271 270 269 269 268 268 267 267 266 266 265 265 264 263 263 262 262 261 261 260 260 260 260 259 259 258 258 257 257 256 256 255 255 254 254 253 252 251 251 250 249 249 248 248 247 247 247 248 249 249 250
300 300 300 300 299 298 298 297 297 296 295 294 294 293 292 291 289 288 287 286 285 284 283 282 282 281 280 279 278 277 275 274 273 273 272 271 270 269 268 268 267 266 266 266 265 264 264 263 263 262 262 261 261 260 260 260 259 259 259 258 258 257 257 256 255 255 254 254 253 253 252 252 251 250 249 248 248 247 247 246 246 246 246 247 248 248
301 301 301 300 300 299 298 298 297 296 296 295 294 293 291 290 289 288 287 287 286 285 284 283 283 282 281 280 278 277 276 275 274 273 272 271 270 269 268 267 267 266 265 265 264 264 263 263 262 262 261 261 260 260 259 259 259 259 258 258 257 257 256 255 254 254 253 253 252 252 251 251 250 249 249 248 247 247 246 245 245 245 245 245 246 246
302 302 301 301 300 300 299 298 297 297 296 295 294 293 291 290 289 288 288 287 287 286 286 285 284 283 281 280 279 277 276 275 274 273 272 271 270 269 268 267 266 266 265 264 264 263 263 262 262 261 261 260 260 259 259 258 258 258 257 257 256 256 255 254 253 253 252 252 252 251 251 250 249 249 248 247 246 246 245 244 244 243 243 244 244 245
303 302 302 301 300 300 299 299 298 297 296 295 294 293 291 290 289 288 288 288 288 288 287 286 285 284 282 280 279 278 277 276 275 274 273 272 271 269 268 267 266 265 265 264 264 263 263 262 261 261 260 260 259 259 258 257 257 257 256 256 255 255 254 253 253 252 252 251 251 250 250 249 248 248 247 246 245 245 244 243 242 242 242 242 242 243
303 302 302 301 301 300 300 299 298 297 296 295 294 293 291 291 290 289 289 289 289 288 288 287 286 285 283 281 280 279 278 277 276 275 274 272 271 270 268 267 266 265 265 264 263 263 262 261 261 260 259 259 258 258 257 257 256 256 255 255 254 254 253 253 252 252 251 250 250 249 248 248 247 246 246 245 244 243 242 242 241 240 240 240 240 241
303 302 302 302 301 301 300 299 298 297 296 295 294 293 292 291 291 291 291 290 290 289 289 288 287 285 284 282 281 280 279 278 277 276 274 273 271 270 269 267 266 265 264 264 263 262 262 261 260 259 258 258 258 257 257 256 256 255 255 255 255 254 253 253 252 251 251 250 249 248 247 246 246 245 244 244 243 242 241 240 239 239 238 238 238 239
303 303 302 302 301 301 300 299 298 297 296 295 294 293 293 293 292 292 292 292 291 290 289 288 287 286 284 283 282 281 280 279 278 277 275 273 271 270 268 267 266 265 264 263 262 261 261 260 259 258 257 257 256 256 256 256 255 255 255 255 254 254 253 253 252 251 250 249 248 247 246 245 244 244 243 242 242 241 240 239 238 238 237 237 237 237
303 303 302 302 301 301 300 299 298 297 296 295 294 294 294 294 294 294 293 293 292 291 289 288 287 286 285 284 283 282 281 280 279 277 275 273 271 269 268 267 265 265 263 262 261 260 259 258 258 257 256 256 255 255 255 255 255 254 254 254 254 253 252 252 251 250 249 248 247 246 245 244 243 243 242 241 241 240 239 238 238 237 237 236 236 236
303 303 303 302 302 301 300 299 298 297 296 295 295 295 295 295 295 295 294 293 292 291 290 288 288 286 285 284 284 283 282 281 279 277 274 272 270 269 267 266 265 264 263 262 261 259 258 258 257 256 255 255 254 254 254 254 253 253 253 253 252 251 251 250 249 248 247 246 245 244 244 243 242 242 241 240 240 239 238 237 237 236 236 236 235 235
304 303 303 303 302 301 300 299 298 297 297 296 296 296 296 296 295 295 294 293 292 291 290 289 288 287 286 285 284 283 282 281 278 276 274 272 270 269 268 266 265 264 262 261 260 259 257 256 255 255 254 254 253 253 253 252 252 252 251 251 250 249 248 248 247 246 245 244 244 243 242 241 241 240 240 239 239 238 237 237 236 236 235 235 235 234
304 304 303 303 302 301 300 299 298 298 297 297 297 297 297 296 296 295 294 293 292 291 290 289 288 287 286 285 285 284 282 280 278 275 273 272 271 269 268 267 265 263 261 260 258 257 256 255 254 253 253 252 252 252 251 251 250 250 249 249 248 247 246 245 245 244 243 243 242 241 241 240 239 239 238 238 237 237 236 236 235 235 234 234 234 234
304 304 303 303 302 301 301 300 299 298 298 298 298 297 297 296 296 295 293 292 292 291 290 289 288 287 287 286 285 284 282 280 277 275 274 273 272 270 268 266 264 262 260 258 257 256 254 253 252 251 251 250 250 250 249 249 248 248 247 246 246 245 244 243 242 242 241 241 240 240 239 239 238 237 237 236 236 236 235 235 234 234 234 233 233 233
305 305 304 303 303 302 301 301 300 299 299 299 299 298 298 297 296 295 294 293 292 291 291 290 289 288 287 286 285 284 282 280 277 275 274 273 272 270 268 265 263 260 259 257 255 254 252 251 250 249 248 248 247 247 247 246 246 245 245 244 243 243 242 241 241 240 240 239 239 238 238 237 237 236 235 235 234 234 234 233 233 233 233 232 232 232
305 305 304 304 303 303 302 301 300 300 300 299 299 299 298 297 296 295 294 294 293 292 291 290 290 289 288 286 285 284 282 280 278 276 275 274 272 270 267 264 261 259 257 256 254 252 250 249 247 246 246 245 245 244 244 244 243 243 243 242 242 241 240 240 239 239 238 238 237 237 236 236 235 234 234 233 233 232 232 232 232 232 231 231 231 231
306 306 305 305 304 304 303 302 301 301 300 300 300 299 298 298 297 296 295 295 294 293 292 291 290 289 288 287 285 284 282 281 279 277 275 274 271 269 266 263 260 258 256 254 252 250 248 246 245 244 243 243 242 242 242 242 241 241 241 240 240 240 239 238 238 237 237 237 236 236 235 234 234 233 232 232 231 231 231 231 230 230 230 230 230 229
307 307 306 305 305 304 303 303 302 302 301 301 301 300 299 298 298 297 296 296 295 294 293 292 292 290 289 287 286 284 283 281 279 277 275 273 271 268 265 262 259 257 254 252 250 248 246 244 243 242 241 241 240 240 240 240 240 239 239 239 238 238 237 237 236 236 235 235 234 234 233 233 232 232 231 231 230 230 230 230 229 229 229 228 228 228
308 308 307 306 306 305 304 303 303 302 302 302 301 300 300 299 298 298 297 296 296 295 294 294 292 291 289 288 286 285 283 281 279 277 275 273 270 267 264 261 258 255 253 250 248 246 244 243 242 240 240 239 239 238 238 238 238 237 237 237 236 236 235 235 234 233 233 233 232 232 232 231 231 231 230 230 230 229 229 229 229 228 228 228 228 227
309 308 308 307 306 305 305 304 304 303 303 303 302 301 300 300 299 298 297 297 296 296 295 294 293 291 290 288 287 285 283 281 279 276 274 271 268 265 262 259 256 253 251 248 246 244 243 241 240 239 238 238 237 237 236 236 236 235 235 234 234 233 233 232 232 231 231 231 231 230 230 230 230 229 229 229 229 229 229 229 228 228 228 227 227 227
309 309 308 307 306 306 305 305 304 304 304 303 302 302 301 300 299 299 298 297 297 296 296 295 293 292 290 288 286 284 282 280 278 275 272 269 266 263 260 257 254 251 249 246 244 242 241 239 238 237 236 236 235 234 234 234 233 233 232 232 231 231 231 230 230 230 230 230 230 229 229 229 228 228 228 228 228 228 228 228 228 227 227 227 227 226
309 309 308 307 306 306 306 305 305 304 304 303 302 302 301 300 300 299 298 298 297 297 296 295 294 292 290 288 286 283 281 278 275 273 269 266 263 260 257 255 252 249 246 244 242 240 238 237 236 235 234 233 233 232 232 231 231 230 230 230 229 229 228 228 228 228 228 228 228 228 228 228 227 227 227 227 227 227 227 227 227 227 227 227 226 226
310 309 308 307 307 306 306 306 305 305 304 303 303 302 301 301 300 299 299 298 298 297 296 295 293 291 289 287 284 281 279 276 273 270 267 263 260 257 255 252 249 246 244 242 240 238 236 235 234 233 232 231 231 230 230 230 229 229 228 228 227 227 227 226 226 226 227 227 227 227 227 227 227 226 226 226 226 226 226 227 227 227 226 226 226 226
310 309 308 308 307 307 306 306 306 305 304 303 303 302 301 301 300 299 299 298 298 297 296 294 292 290 288 285 282 279 276 274 271 268 264 261 257 255 252 249 247 244 242 240 238 237 235 234 232 231 231 230 230 229 229 228 228 228 227 227 226 225 225 225 225 226 226 226 226 226 226 226 226 226 226 226 226 226 226 226 226 226 226 226 225 225
309 309 308 308 308 307 307 306 306 305 304 304 303 302 301 301 300 300 299 298 298 297 295 293 291 289 286 283 281 278 275 272 269 266 263 259 255 252 250 247 245 242 240 238 237 235 234 233 232 231 230 230 229 229 228 228 227 227 226 226 225 225 225 225 225 225 226 226 226 226 226 226 226 226 226 226 226 225 225 225 225 225 225 225 224 224
309 309 309 308 308 308 307 307 306 305 305 304 303 303 302 301 301 300 299 299 298 296 294 292 290 287 285 282 279 277 274 271 268 266 262 258 255 252 249 246 244 241 239 237 236 235 233 232 231 231 230 229 229 228 228 227 227 226 226 226 225 225 225 225 225 225 226 226 226 226 226 226 226 226 226 226 226 225 225 225 225 225 224 224 223 223
309 309 309 309 309 308 308 307 307 306 305 305 304 304 303 302 302 301 300 299 297 296 294 292 289 286 283 281 278 276 273 271 268 266 262 258 255 252 249 246 243 241 239 237 235 234 233 232 232 231 230 229 229 229 228 227 227 226 226 226 226 225 225 225 226 226 226 226 226 226 226 226 226 226 226 226 225 225 225 225 224 224 223 223 222 222
310 310 310 309 309 309 308 308 307 307 306 306 305 304 304 303 303 302 301 299 298 296 294 291 289 286 282 280 277 274 272 270 268 266 262 259 255 252 249 246 244 241 239 237 236 234 233 233 232 231 230 230 229 229 228 228 227 227 227 226 226 226 226 226 226 226 226 227 227 227 227 227 227 227 226 226 226 225 224 224 223 223 222 222 221 221
310 310 310 310 310 310 309 309 308 308 307 307 306 306 305 304 303 303 301 300 298 296 294 292 289 286 283 280 277 274 272 270 268 266 263 259 255 252 249 246 243 241 239 238 236 235 234 233 233 232 231 230 230 229 229 228 228 227 227 227 226 226 226 226 226 227 227 227 227 227 228 228 227 227 227 226 226 225 224 223 223 222 222 221 221 220
311 311 311 311 311 310 310 310 310 309 309 308 307 306 306 305 304 303 302 300 298 297 295 292 290 287 284 281 278 275 273 270 269 266 262 258 255 251 248 245 243 241 239 237 236 235 234 233 233 232 231 230 230 229 229 229 228 228 227 227 226 227 227 227 227 227 228 228 228 228 228 228 228 227 227 226 226 225 224 223 222 222 221 221 220 220
312 312 312 312 311 311 311 311 310 310 310 309 308 307 306 305 304 303 302 301 299 297 295 293 290 288 285 282 279 276 274 272 269 266 262 258 254 251 247 244 242 240 238 236 235 234 233 233 232 231 230 230 229 229 229 228 228 228 227 227 227 227 227 227 228 228 228 229 229 229 229 228 228 228 227 226 226 225 224 223 222 222 221 221 220 220
313 312 312 312 312 312 312 312 311 311 310 309 308 307 307 306 305 304 302 301 299 297 295 293 291 288 286 282 279 277 274 271 268 265 261 257 253 249 246 243 241 238 236 235 234 232 232 232 231 230 229 229 229 229 228 228 228 227 227 227 227 227 228 228 228 229 229 229 229 229 229 228 228 227 227 226 225 225 224 223 222 221 221 220 220 219
313 313 313 313 313 313 313 312 312 311 311 310 309 308 307 306 305 304 303 301 299 297 295 293 291 288 285 282 279 276 273 270 267 263 258 254 251 247 244 241 239 237 235 233 232 231 230 230 230 229 228 228 228 228 227 227 227 227 227 227 227 228 228 228 229 229 229 229 229 229 228 228 227 227 226 226 225 224 223 222 221 221 220 219 219 218
315 314 314 314 314 314 313 313 313 312 311 310 309 308 307 306 305 304 302 301 299 297 295 293 290 288 285 282 278 274 271 267 264 260 256 252 249 245 243 240 237 235 233 232 231 230 229 229 229 229 228 228 227 227 227 227 226 227 227 227 227 228 228 228 229 229 228 228 228 228 228 227 227 226 225 225 224 223 222 222 221 220 219 218 218 217
316 316 315 315 315 315 314 314 313 312 311 310 309 308 308 307 306 305 303 301 300 298 295 293 291 288 284 281 277 274 270 266 262 258 255 251 248 245 242 239 236 235 233 232 231 230 229 229 229 229 228 228 228 227 227 227 226 226 227 227 227 228 228 228 228 228 228 228 227 227 227 226 225 225 224 223 223 222 221 220 219 218 218 217 217 216
317 316 316 316 316 315 315 314 313 312 311 311 310 310 309 308 307 306 304 303 301 299 297 294 292 289 286 283 279 275 271 267 263 259 255 252 249 245 242 240 237 235 234 232 231 230 230 230 230 229 229 229 229 228 228 228 227 227 227 227 227 228 228 228 228 228 228 227 226 226 225 224 224 223 223 222 221 221 220 219 218 217 217 216 215 215
317 317 317 317 316 316 315 314 314 313 312 311 311 310 310 309 308 307 306 304 303 301 299 297 294 292 289 285 282 278 275 270 266 262 258 254 251 247 243 241 239 237 235 234 233 232 231 231 231 231 230 230 229 229 229 229 229 228 228 228 228 228 228 228 228 228 227 226 226 225 224 223 222 221 221 220 219 219 218 217 216 216 215 215 214 213
318 318 318 317 316 316 315 315 314 313 313 312 312 312 311 311 310 309 308 307 305 304 302 300 298 295 292 289 286 282 278 274 270 266 260 257 253 249 246 243 241 239 237 236 235 234 233 233 232 232 231 231 230 230 230 229 229 229 228 228 228 228 228 227 227 227 226 225 224 223 222 221 220 219 218 217 217 217 216 215 214 214 214 213 213 212
318 318 318 317 317 316 315 315 314 314 314 314 314 313 313 313 312 311 311 309 308 307 305 304 301 299 296 293 290 286 282 278 273 269 264 260 256 252 249 246 243 241 239 238 237 236 236 234 233 233 232 231 231 230 230 230 229 229 228 228 227 227 226 226 226 225 225 224 223 222 221 220 218 217 216 216 215 214 214 213 213 212 212 212 211 211
319 318 318 318 317 316 316 316 316 316 316 316 315 315 315 314 314 314 313 312 311 310 308 307 304 302 299 296 293 289 285 280 275 271 267 262 259 255 252 249 246 244 242 241 239 238 238 237 235 234 233 232 231 231 230 229 229 228 227 227 226 225 225 224 224 224 223 222 221 220 219 218 217 215 214 213 213 212 212 211 211 211 211 211 210 210
319 319 318 318 317 317 317 317 317 317 317 317 317 317 317 316 316 315 315 314 313 313 311 309 307 304 302 298 294 290 286 282 278 273 269 265 261 257 254 251 248 246 244 243 241 241 239 238 237 235 234 233 232 231 230 229 228 227 226 225 223 223 222 222 222 221 221 220 219 218 217 216 215 214 212 212 211 211 210 210 210 210 210 209 210 209
319 319 319 318 318 318 318 318 319 319 318 319 319 318 318 318 317 317 316 316 315 314 312 310 308 305 302 299 295 291 287 284 280 275 271 267 263 259 256 252 250 248 246 244 242 241 240 239 237 236 234 233 232 231 230 228 227 225 224 223 222 221 220 220 219 219 219 218 217 216 215 214 213 212 211 210 209 209 209 208 208 208 208 209 209 209
319 319 319 319 319 319 320 320 320 320 320 320 320 320 319 319 319 318 318 318 317 316 314 312 309 307 303 300 296 293 289 286 282 278 273 268 265 260 257 254 251 248 246 244 242 241 239 237 236 235 233 232 231 230 229 227 226 224 223 222 220 219 219 218 218 217 217 216 215 214 213 212 211 210 209 208 208 207 207 207 207 207 207 207 208 208
319 319 319 320 321 321 321 321 321 321 321 321 321 321 321 320 320 320 320 319 318 317 316 314 311 309 306 302 300 296 292 289 284 279 274 270 264 260 257 253 250 248 245 243 241 239 237 236 234 233 232 231 230 229 228 226 224 223 222 221 220 219 218 217 216 216 215 214 213 211 210 209 208 208 207 207 207 206 206 205 205 206 206 206 207 207
319 320 320 321 322 323 323 323 322 322 322 322 322 322 322 321 321 321 321 321 321 320 319 316 314 312 308 306 302 298 294 290 285 280 275 270 264 259 256 252 249 246 244 242 239 238 236 234 233 232 230 229 228 227 226 225 223 222 221 220 219 218 218 217 215 215 213 212 211 209 208 207 207 206 206 206 206 205 204 204 204 204 205 205 205 206
320 320 321 322 323 324 324 324 324 323 323 323 323 323 323 322 323 323 324 323 323 322 321 320 318 314 312 309 305 302 297 292 287 282 275 270 264 261 256 253 249 247 244 241 239 236 234 233 231 230 229 227 226 224 223 222 221 220 219 219 218 218 217 216 215 214 212 210 209 208 207 206 206 205 205 205 204 204 203 203 203 203 204 204 204 205
321 322 323 324 324 324 324 324 324 323 324 324 324 324 324 324 325 324 325 326 326 326 325 323 321 319 316 313 309 305 301 296 290 285 279 272 267 263 258 255 252 248 245 242 239 237 234 232 230 229 227 226 224 223 221 219 219 217 217 217 217 216 215 215 214 213 211 210 208 207 206 205 205 205 204 204 203 203 203 202 202 202 203 203 204 204
Height
10245 10239 10235 10230 10226 10222 10218 10214 10211 10206 10202 10199 10197 10194 10190 10187 10183 10181 10178 10174 10171 10168 10165 10163 10161 10159 10158 10156 10154 10153 10151 10151 10149 10149 10148 10147 10146 10145 10144 10144 10145 10146 10148 10149 10151 10152 10153 10154 10154 10156 10157 10158 10159 10161 10163 10164 10166 10169 10171 10173 10176 10178 10180 10182 10184 10187 10189 10193 10196 10198 10202 10204 10208 10211 10213 10215 10217 10219 10221 10223 10226 10230 10234 10240 10245 10249
10231 10226 10221 10218 10214 10210 10206 10202 10198 10194 10190 10187 10185 10183 10180 10177 10173 10171 10167 10163 10159 10156 10154 10152 10151 10149 10148 10147 10145 10143 10142 10140 10139 10139 10138 10138 10137 10136 10136 10136 10136 10137 10138 10139 10141 10143 10144 10144 10146 10146 10148 10149 10151 10152 10154 10156 10158 10159 10162 10164 10167 10169 10171 10174 10176 10178 10181 10183 10186 10189 10192 10195 10198 10201 10204 10206 10209 10211 10213 10214 10216 10219 10223 10229 10234 10239
10218 10213 10208 10205 10202 10198 10194 10189 10186 10182 10178 10176 10173 10171 10169 10166 10163 10160 10156 10153 10149 10146 10143 10141 10140 10139 10138 10138 10136 10134 10132 10131 10129 10129 10129 10128 10128 10128 10127 10127 10128 10128 10129 10130 10131 10133 10134 10136 10136 10138 10139 10140 10142 10143 10145 10147 10149 10151 10153 10156 10158 10161 10163 10165 10168 10169 10171 10174 10177 10179 10183 10186 10189 10192 10194 10198 10200 10203 10204 10206 10208 10211 10213 10218 10223 10228
10206 10201 10196 10193 10190 10187 10183 10179 10174 10171 10167 10164 10162 10160 10158 10155 10153 10149 10146 10142 10139 10136 10133 10131 10130 10129 10129 10128 10127 10125 10123 10121 10120 10119 10119 10119 10119 10119 10119 10118 10118 10119 10120 10121 10123 10124 10125 10126 10128 10129 10130 10132 10133 10134 10136 10138 10140 10142 10144 10147 10149 10153 10155 10158 10159 10161 10163 10166 10168 10171 10174 10177 10179 10183 10186 10189 10191 10194 10196 10198 10200 10203 10205 10208 10212 10217
10195 10191 10186 10182 10179 10176 10173 10169 10164 10160 10156 10153 10151 10149 10146 10144 10141 10138 10135 10132 10129 10126 10124 10122 10121 10119 10119 10118 10117 10116 10114 10112 10111 10110 10110 10109 10109 10110 10109 10109 10109 10110 10111 10113 10114 10115 10116 10118 10119 10120 10121 10123 10124 10126 10128 10129 10132 10134 10136 10139 10141 10144 10148 10149 10151 10153 10155 10157 10159 10163 10165 10168 10171 10174 10177 10179 10183 10185 10188 10190 10193 10194 10197 10199 10203 10207
10184 10180 10175 10171 10168 10164 10161 10158 10154 10149 10146 10143 10141 10139 10136 10132 10129 10126 10124 10121 10119 10116 10114 10113 10112 10111 10109 10108 10107 10106 10104 10103 10102 10101 10101 10101 10101 10101 10101 10101 10101 10101 10103 10104 10105 10106 10108 10109 10110 10111 10113 10114 10116 10118 10120 10122 10124 10126 10128 10131 10134 10137 10139 10142 10144 10146 10148 10149 10152 10154 10157 10160 10163 10165 10168 10171 10174 10176 10179 10182 10184 10187 10189 10192 10194 10198
10173 10170 10166 10161 10157 10154 10151 10148 10143 10139 10136 10133 10131 10129 10126 10122 10118 10115 10113 10110 10108 10106 10105 10104 10104 10102 10100 10098 10097 10096 10094 10094 10093 10093 10093 10092 10092 10092 10092 10092 10093 10093 10094 10095 10096 10098 10099 10101 10102 10103 10104 10106 10108 10110 10112 10114 10116 10118 10121 10123 10126 10129 10132 10134 10136 10138 10140 10142 10144 10146 10149 10151 10154 10156 10159 10162 10165 10168 10171 10174 10177 10179 10182 10184 10187 10189
10163 10159 10156 10152 10148 10143 10141 10138 10134 10130 10126 10123 10121 10118 10116 10113 10109 10106 10103 10100 10098 10096 10095 10095 10095 10094 10091 10089 10087 10086 10085 10084 10084 10084 10084 10084 10083 10083 10083 10084 10084 10084 10085 10086 10088 10089 10091 10093 10094 10096 10097 10099 10101 10103 10104 10106 10109 10111 10113 10116 10119 10122 10124 10127 10129 10130 10133 10134 10136 10139 10141 10143 10146 10149 10151 10154 10157 10160 10164 10167 10169 10172 10174 10177 10180 10183
10153 10149 10146 10143 10139 10134 10131 10128 10124 10121 10116 10113 10110 10108 10104 10102 10100 10098 10094 10091 10088 10086 10085 10085 10085 10084 10083 10079 10077 10076 10076 10076 10076 10076 10076 10075 10075 10074 10075 10075 10076 10076 10077 10078 10079 10081 10083 10085 10087 10089 10090 10092 10094 10096 10098 10099 10101 10104 10106 10109 10111 10114 10116 10119 10121 10123 10125 10128 10129 10131 10134 10136 10139 10141 10144 10147 10150 10153 10156 10159 10162 10164 10168 10170 10173 10176
10143 10139 10136 10133 10129 10126 10122 10118 10115 10112 10108 10103 10099 10097 10094 10092 10090 10089 10087 10084 10081 10078 10076 10075 10075 10074 10073 10071 10068 10067 10067 10068 10069 10069 10068 10067 10067 10066 10066 10067 10068 10068 10069 10070 10072 10074 10076 10078 10080 10082 10083 10084 10086 10088 10090 10092 10094 10096 10098 10101 10103 10106 10109 10111 10114 10116 10118 10120 10123 10124 10126 10129 10131 10134 10136 10139 10142 10145 10148 10151 10154 10158 10160 10163 10165 10168
10134 10131 10128 10124 10120 10117 10114 10110 10106 10102 10098 10094 10090 10087 10084 10082 10080 10079 10079 10078 10075 10071 10068 10066 10065 10064 10063 10061 10060 10059 10059 10061 10061 10061 10060 10059 10059 10059 10059 10059 10060 10061 10062 10063 10065 10067 10069 10071 10073 10074 10076 10078 10079 10081 10083 10085 10087 10089 10091 10094 10096 10099 10102 10104 10107 10109 10111 10114 10116 10118 10119 10121 10124 10126 10129 10131 10134 10137 10140 10143 10146 10149 10153 10155 10157 10159
10125 10122 10118 10115 10112 10109 10105 10101 10098 10093 10089 10084 10081 10078 10075 10073 10071 10070 10069 10069 10068 10064 10061 10058 10056 10054 10052 10051 10051 10053 10053 10054 10054 10054 10053 10051 10051 10051 10051 10051 10052 10053 10055 10056 10058 10059 10061 10063 10065 10067 10069 10071 10072 10074 10076 10078 10081 10083 10085 10088 10090 10093 10096 10098 10101 10103 10105 10107 10109 10111 10113 10114 10116 10119 10121 10124 10126 10129 10133 10135 10138 10141 10144 10146 10149 10152
10117 10114 10111 10108 10105 10101 10096 10092 10088 10084 10081 10076 10072 10069 10067 10065 10063 10062 10061 10060 10059 10056 10054 10051 10049 10046 10043 10042 10043 10045 10047 10048 10047 10046 10044 10043 10042 10042 10043 10044 10045 10047 10049 10049 10051 10052 10054 10056 10058 10060 10062 10064 10066 10068 10070 10072 10074 10077 10079 10082 10084 10088 10090 10093 10094 10096 10098 10100 10102 10104 10105 10107 10109 10111 10114 10116 10119 10122 10125 10128 10130 10133 10136 10138 10141 10144
10109 10106 10103 10101 10096 10092 10088 10083 10079 10076 10073 10068 10064 10062 10059 10058 10056 10054 10053 10052 10050 10048 10046 10044 10041 10039 10036 10034 10036 10038 10041 10041 10040 10038 10036 10034 10034 10034 10035 10037 10039 10041 10041 10042 10043 10045 10047 10049 10051 10053 10056 10058 10059 10062 10064 10066 10069 10071 10074 10076 10079 10081 10084 10086 10088 10089 10091 10093 10094 10096 10098 10100 10102 10104 10107 10109 10112 10114 10118 10120 10123 10125 10128 10131 10134 10138
10102 10099 10096 10092 10088 10084 10079 10075 10071 10068 10064 10061 10058 10055 10053 10051 10049 10048 10046 10044 10043 10041 10039 10036 10034 10031 10029 10028 10029 10032 10034 10034 10033 10029 10027 10026 10026 10026 10029 10031 10033 10033 10034 10035 10036 10038 10041 10043 10045 10048 10049 10051 10054 10056 10058 10061 10063 10066 10068 10071 10073 10076 10078 10079 10081 10083 10084 10086 10088 10089 10091 10093 10096 10098 10100 10103 10105 10108 10111 10113 10116 10118 10121 10124 10128 10131
10095 10091 10088 10084 10080 10076 10071 10067 10063 10059 10057 10054 10051 10049 10046 10044 10043 10041 10039 10037 10036 10034 10032 10029 10028 10025 10023 10021 10023 10025 10028 10027 10024 10021 10019 10018 10018 10021 10024 10026 10027 10027 10028 10029 10030 10032 10034 10037 10039 10042 10044 10046 10048 10051 10053 10055 10058 10060 10063 10065 10067 10069 10071 10073 10074 10076 10078 10079 10081 10083 10085 10087 10089 10091 10094 10096 10099 10101 10104 10106 10109 10111 10114 10118 10121 10124
10088 10083 10079 10076 10073 10068 10064 10059 10055 10052 10049 10048 10045 10043 10040 10038 10036 10034 10032 10030 10029 10027 10026 10023 10021 10019 10017 10016 10016 10018 10021 10019 10017 10014 10012 10011 10013 10016 10019 10021 10021 10021 10021 10023 10024 10026 10029 10031 10034 10036 10039 10041 10043 10045 10047 10049 10052 10054 10056 10059 10061 10063 10065 10066 10068 10070 10071 10073 10074 10076 10079 10081 10083 10085 10088 10090 10092 10094 10097 10099 10103 10105 10108 10111 10115 10118
10079 10075 10071 10068 10065 10061 10057 10052 10048 10045 10043 10041 10039 10036 10034 10031 10029 10028 10025 10024 10023 10021 10019 10018 10016 10014 10013 10011 10011 10011 10013 10012 10010 10008 10006 10007 10008 10011 10014 10014 10014 10014 10015 10016 10019 10021 10024 10026 10029 10031 10033 10035 10037 10039 10041 10044 10046 10048 10051 10053 10054 10056 10058 10060 10061 10063 10065 10066 10068 10070 10072 10074 10077 10079 10081 10083 10086 10088 10091 10093 10096 10099 10102 10105 10109 10112
10073 10068 10063 10060 10057 10054 10050 10046 10041 10039 10036 10035 10033 10031 10028 10026 10023 10021 10019 10018 10016 10015 10013 10012 10010 10009 10008 10006 10005 10006 10006 10005 10004 10003 10002 10003 10004 10006 10008 10009 10008 10009 10009 10011 10014 10016 10019 10021 10023 10025 10028 10029 10031 10033 10036 10038 10041 10043 10044 10046 10048 10050 10052 10053 10055 10057 10059 10060 10062 10064 10066 10068 10071 10073 10076 10077 10079 10081 10084 10087 10089 10093 10096 10099 10103 10106
10065 10061 10056 10053 10049 10047 10043 10039 10036 10033 10031 10029 10028 10026 10023 10020 10017 10014 10013 10011 10010 10009 10008 10006 10005 10004 10002 10001 10000 9999 10000 9999 9999 9998 9998 9999 10000 10001 10003 10003 10003 10003 10004 10007 10009 10011 10014 10016 10018 10019 10022 10024 10026 10028 10030 10033 10034 10036 10038 10040 10043 10044 10046 10048 10049 10051 10053 10054 10056 10058 10060 10062 10064 10067 10069 10071 10073 10075 10078 10080 10083 10086 10089 10093 10096 10100
10058 10054 10049 10046 10043 10039 10037 10033 10030 10027 10026 10024 10023 10020 10016 10014 10011 10009 10007 10006 10004 10003 10003 10001 10000 9999 9998 9996 9995 9994 9994 9994 9994 9994 9994 9995 9996 9996 9998 9998 9999 9999 10001 10003 10004 10007 10009 10011 10012 10014 10016 10018 10021 10023 10025 10027 10029 10031 10033 10035 10037 10039 10041 10043 10044 10046 10048 10049 10051 10053 10054 10056 10058 10061 10063 10064 10067 10069 10071 10074 10077 10080 10084 10087 10091 10094
10050 10046 10043 10039 10036 10033 10030 10027 10024 10023 10021 10019 10016 10013 10010 10008 10006 10004 10002 10001 9999 9998 9997 9996 9995 9994 9993 9991 9990 9989 9990 9990 9990 9990 9990 9991 9991 9992 9993 9994 9994 9994 9996 9998 10000 10002 10004 10006 10008 10009 10011 10014 10016 10018 10020 10022 10024 10026 10028 10030 10032 10034 10035 10037 10039 10041 10043 10044 10046 10048 10049 10051 10053 10055 10057 10059 10061 10064 10066 10069 10071 10075 10078 10081 10085 10089
10043 10039 10036 10033 10029 10026 10024 10022 10020 10018 10014 10012 10009 10007 10005 10003 10001 9999 9998 9996 9994 9993 9993 9992 9991 9989 9988 9987 9986 9985 9985 9985 9985 9986 9986 9987 9987 9988 9989 9989 9989 9990 9992 9994 9996 9998 9999 10001 10003 10005 10007 10009 10011 10014 10016 10018 10019 10021 10023 10025 10026 10028 10030 10031 10033 10035 10036 10038 10039 10042 10044 10046 10048 10050 10052 10054 10056 10059 10061 10064 10067 10070 10073 10076 10080 10083
10036 10033 10030 10026 10023 10021 10019 10017 10014 10011 10008 10006 10004 10001 9999 9998 9996 9995 9993 9992 9990 9989 9988 9988 9986 9985 9984 9983 9982 9981 9981 9981 9981 9981 9983 9983 9983 9983 9984 9984 9985 9986 9988 9990 9991 9993 9995 9997 9999 10001 10003 10005 10008 10009 10011 10013 10015 10016 10018 10020 10021 10023 10025 10026 10028 10029 10031 10033 10034 10036 10038 10041 10043 10045 10048 10049 10052 10054 10057 10060 10063 10066 10069 10072 10075 10079
10029 10027 10024 10021 10018 10016 10014 10011 10008 10006 10004 10001 9999 9996 9994 9993 9992 9991 9989 9988 9986 9985 9984 9984 9983 9981 9979 9979 9978 9977 9976 9976 9977 9978 9979 9979 9979 9979 9979 9980 9981 9983 9984 9986 9988 9989 9991 9993 9995 9997 9999 10001 10003 10005 10007 10009 10010 10012 10014 10016 10017 10019 10021 10022 10024 10026 10027 10029 10030 10032 10034 10036 10038 10041 10043 10046 10048 10051 10053 10056 10059 10062 10065 10068 10071 10074
10024 10021 10019 10016 10013 10011 10008 10006 10003 10001 9999 9997 9994 9993 9990 9989 9988 9986 9985 9984 9983 9981 9981 9980 9979 9977 9976 9975 9974 9973 9973 9973 9973 9974 9976 9975 9975 9975 9976 9976 9978 9979 9981 9982 9984 9986 9987 9989 9991 9993 9995 9997 9999 10001 10003 10004 10006 10008 10009 10011 10013 10015 10017 10018 10020 10021 10023 10024 10026 10028 10030 10032 10034 10036 10039 10041 10044 10047 10049 10052 10055 10058 10061 10064 10068 10071
10019 10016 10014 10011 10009 10006 10003 10001 9998 9997 9994 9993 9991 9988 9986 9984 9983 9982 9981 9980 9979 9978 9977 9976 9974 9973 9972 9971 9970 9969 9969 9969 9969 9970 9971 9971 9971 9972 9972 9973 9974 9976 9978 9979 9980 9982 9983 9985 9987 9989 9991 9993 9994 9996 9998 10000 10001 10003 10005 10007 10009 10011 10012 10014 10015 10017 10019 10020 10022 10024 10026 10028 10030 10033 10035 10038 10040 10043 10046 10048 10051 10054 10057 10061 10064 10068
10013 10011 10009 10007 10004 10001 9998 9996 9994 9993 9990 9988 9986 9984 9983 9981 9979 9978 9977 9976 9976 9974 9973 9973 9971 9970 9969 9968 9966 9966 9966 9966 9966 9966 9967 9968 9968 9969 9969 9970 9971 9973 9974 9976 9977 9978 9980 9982 9984 9986 9987 9989 9991 9993 9994 9996 9998 9999 10001 10003 10004 10006 10008 10009 10011 10013 10014 10016 10018 10020 10022 10024 10026 10029 10031 10034 10036 10039 10041 10044 10048 10051 10054 10058 10061 10064
10008 10006 10004 10001 9999 9996 9994 9992 9990 9988 9986 9984 9983 9981 9979 9978 9976 9975 9974 9973 9972 9971 9970 9969 9968 9967 9966 9964 9963 9963 9963 9963 9963 9963 9964 9965 9966 9966 9966 9968 9969 9970 9972 9973 9974 9976 9978 9979 9981 9982 9984 9986 9987 9989 9991 9992 9994 9995 9997 9999 10001 10003 10004 10006 10008 10009 10011 10013 10014 10017 10019 10021 10023 10026 10028 10031 10033 10036 10038 10041 10044 10048 10051 10054 10058 10061
10003 10001 9999 9996 9994 9993 9990 9988 9986 9984 9982 9980 9979 9977 9976 9974 9973 9972 9971 9970 9969 9968 9967 9966 9965 9964 9963 9961 9961 9960 9959 9959 9960 9961 9962 9963 9963 9963 9964 9965 9966 9968 9969 9971 9972 9973 9974 9976 9978 9979 9981 9983 9984 9986 9987 9989 9990 9992 9993 9995 9997 9999 10001 10003 10004 10006 10008 10009 10011 10014 10016 10018 10020 10022 10024 10027 10030 10033 10036 10038 10041 10044 10048 10051 10054 10057
9998 9996 9994 9992 9990 9988 9986 9984 9982 9980 9978 9977 9975 9974 9972 9971 9969 9969 9968 9967 9966 9965 9964 9963 9962 9961 9960 9959 9959 9958 9957 9957 9958 9959 9960 9961 9961 9961 9963 9964 9964 9966 9967 9969 9970 9971 9972 9974 9975 9977 9978 9979 9981 9983 9984 9986 9987 9988 9990 9992 9994 9996 9998 9999 10001 10003 10004 10006 10008 10010 10013 10014 10017 10019 10021 10024 10027 10029 10033 10036 10039 10041 10044 10048 10050 10053
9994 9992 9990 9988 9986 9984 9982 9980 9978 9976 9975 9973 9972 9971 9969 9968 9967 9966 9965 9964 9963 9963 9961 9960 9959 9958 9958 9957 9956 9956 9955 9956 9956 9957 9958 9959 9959 9960 9961 9963 9963 9964 9965 9966 9968 9969 9970 9971 9973 9974 9976 9977 9978 9979 9981 9983 9984 9986 9988 9989 9991 9993 9994 9996 9998 9999 10001 10003 10005 10007 10009 10012 10014 10016 10019 10021 10024 10027 10029 10033 10036 10038 10041 10043 10046 10049
9991 9988 9986 9984 9982 9980 9979 9977 9975 9973 9972 9970 9969 9968 9966 9965 9964 9963 9963 9961 9961 9960 9959 9958 9957 9956 9956 9954 9954 9954 9954 9954 9954 9956 9956 9957 9958 9958 9959 9961 9961 9962 9963 9964 9966 9967 9968 9969 9970 9971 9973 9974 9976 9977 9978 9979 9981 9983 9985 9987 9989 9990 9992 9994 9995 9997 9999 10001 10003 10005 10007 10009 10012 10014 10018 10019 10022 10024 10027 10029 10033 10035 10038 10040 10043 10045
9987 9985 9983 9981 9979 9977 9975 9974 9972 9970 9969 9968 9966 9965 9964 9963 9961 9961 9960 9959 9958 9958 9957 9956 9955 9954 9954 9953 9953 9952 9952 9953 9953 9954 9954 9955 9956 9957 9958 9959 9959 9960 9961 9963 9963 9964 9966 9966 9968 9969 9970 9971 9973 9974 9976 9977 9979 9981 9983 9984 9986 9988 9989 9991 9993 9994 9996 9998 10001 10003 10005 10008 10010 10013 10016 10018 10019 10022 10024 10027 10029 10032 10034 10037 10039 10042
9984 9981 9979 9978 9976 9974 9972 9971 9969 9968 9966 9965 9964 9963 9961 9960 9959 9958 9958 9956 9956 9955 9954 9954 9953 9953 9952 9952 9951 9951 9951 9951 9952 9953 9953 9953 9954 9955 9956 9957 9958 9958 9959 9960 9961 9962 9963 9964 9966 9967 9968 9969 9970 9971 9973 9974 9976 9978 9980 9982 9984 9985 9987 9988 9990 9992 9994 9996 9999 10001 10003 10006 10008 10011 10013 10016 10018 10019 10022 10024 10027 10029 10032 10034 10037 10039
9981 9979 9977 9975 9973 9971 9969 9968 9966 9965 9964 9963 9961 9960 9959 9958 9957 9956 9955 9954 9954 9953 9953 9952 9951 9951 9951 9950 9950 9950 9949 9949 9950 9951 9951 9952 9953 9954 9954 9954 9955 9956 9957 9958 9959 9960 9961 9962 9963 9964 9965 9966 9968 9969 9971 9973 9974 9976 9978 9979 9981 9983 9984 9986 9988 9990 9992 9994 9997 9999 10001 10004 10006 10008 10011 10013 10015 10018 10019 10022 10024 10027 10029 10032 10034 10037
9978 9976 9974 9972 9970 9969 9967 9966 9964 9963 9961 9960 9959 9958 9957 9956 9955 9954 9953 9953 9952 9951 9951 9950 9949 9949 9949 9949 9948 9948 9948 9948 9948 9949 9949 9951 9951 9952 9952 9953 9953 9954 9955 9956 9957 9958 9958 9959 9961 9962 9963 9964 9966 9967 9968 9970 9972 9974 9975 9977 9979 9981 9982 9984 9986 9988 9990 9993 9995 9997 9999 10001 10004 10006 10008 10011 10013 10015 10017 10019 10022 10024 10027 10029 10032 10034
9975 9973 9971 9969 9968 9966 9965 9963 9962 9961 9959 9958 9957 9956 9955 9954 9953 9952 9951 9951 9950 9949 9949 9948 9948 9948 9948 9947 9947 9947 9947 9947 9947 9948 9948 9949 9949 9949 9950 9951 9951 9952 9953 9954 9954 9956 9956 9958 9959 9960 9961 9962 9963 9965 9966 9968 9970 9971 9973 9975 9976 9978 9980 9982 9984 9986 9988 9991 9993 9995 9997 9999 10001 10004 10006 10008 10010 10013 10014 10017 10019 10022 10024 10027 10029 10032
9973 9971 9969 9967 9966 9964 9963 9961 9960 9959 9958 9956 9955 9954 9953 9952 9951 9951 9949 9949 9948 9948 9947 9947 9946 9946 9946 9946 9946 9946 9946 9946 9946 9947 9947 9947 9947 9948 9949 9949 9950 9950 9951 9952 9953 9954 9955 9956 9957 9958 9959 9961 9962 9963 9965 9966 9968 9969 9971 9973 9974 9976 9978 9980 9982 9984 9986 9988 9991 9993 9994 9997 9999 10001 10003 10005 10008 10010 10012 10014 10017 10019 10022 10024 10027 10029
9970 9968 9966 9965 9963 9962 9961 9959 9958 9957 9956 9954 9953 9953 9951 9951 9949 9949 9948 9948 9947 9946 9946 9946 9945 9945 9945 9945 9945 9945 9945 9945 9945 9945 9946 9946 9946 9947 9948 9948 9949 9949 9950 9951 9951 9953 9953 9954 9955 9957 9958 9959 9961 9962 9963 9964 9966 9968 9969 9971 9973 9974 9976 9978 9980 9982 9984 9986 9988 9991 9993 9994 9997 9999 10001 10003 10005 10008 10010 10013 10014 10017 10019 10021 10024 10026
9968 9966 9964 9963 9961 9960 9959 9958 9956 9955 9954 9953 9952 9951 9950 9949 9948 9948 9947 9946 9946 9945 9945 9944 9944 9944 9944 9944 9944 9944 9944 9944 9944 9944 9944 9945 9945 9946 9946 9947 9948 9949 9949 9949 9950 9951 9951 9953 9954 9956 9957 9958 9959 9961 9962 9963 9964 9966 9968 9969 9971 9973 9974 9976 9978 9980 9982 9984 9986 9989 9991 9993 9994 9997 9999 10001 10003 10006 10008 10010 10012 10014 10016 10019 10021 10023
9966 9964 9963 9961 9959 9958 9957 9956 9954 9953 9953 9951 9950 9949 9949 9948 9947 9946 9946 9945 9945 9944 9944 9944 9943 9943 9943 9943 9943 9943 9943 9943 9944 9944 9944 9944 9944 9945 9946 9946 9947 9947 9948 9948 9949 9949 9951 9952 9953 9954 9956 9957 9958 9959 9960 9961 9963 9964 9966 9968 9969 9971 9973 9974 9976 9978 9980 9982 9984 9986 9989 9991 9993 9994 9997 9999 10001 10003 10006 10008 10009 10012 10014 10016 10018 10021
9964 9962 9961 9959 9958 9956 9955 9954 9953 9952 9951 9950 9949 9948 9948 9947 9946 9946 9945 9944 9944 9943 9943 9943 9943 9943 9943 9943 9943 9943 9943 9943 9943 9943 9943 9943 9944 9944 9945 9945 9946 9946 9946 9947 9948 9949 9949 9951 9952 9953 9954 9956 9956 9958 9959 9960 9961 9963 9964 9966 9968 9969 9971 9973 9974 9976 9978 9980 9982 9984 9987 9989 9991 9993 9994 9997 9999 10001 10003 10005 10008 10009 10011 10014 10016 10018
9962 9960 9959 9958 9956 9955 9954 9953 9952 9951 9949 9949 9948 9947 9946 9946 9945 9944 9944 9943 9943 9943 9942 9942 9942 9942 9942 9941 9941 9941 9941 9942 9942 9942 9943 9943 9943 9943 9944 9944 9944 9945 9946 9946 9947 9948 9949 9950 9951 9952 9953 9954 9955 9956 9958 9959 9960 9961 9963 9964 9966 9968 9969 9971 9973 9974 9976 9978 9980 9983 9984 9987 9989 9991 9993 9994 9997 9999 10001 10003 10005 10007 10009 10011 10014 10016
9960 9959 9958 9956 9955 9954 9953 9951 9951 9949 9948 9948 9947 9946 9945 9944 9944 9943 9943 9942 9942 9941 9941 9941 9941 9941 9941 9941 9941 9941 9941 9941 9941 9941 9941 9942 9942 9943 9943 9943 9944 9944 9945 9946 9946 9947 9948 9949 9950 9951 9952 9953 9954 9955 9956 9957 9959 9960 9961 9963 9964 9966 9968 9969 9971 9973 9974 9976 9978 9981 9983 9984 9987 9989 9991 9993 9994 9997 9999 10001 10003 10005 10007 10009 10011 10014
9959 9958 9956 9955 9954 9953 9951 9951 9949 9948 9948 9946 9946 9945 9944 9943 9943 9942 9942 9941 9941 9941 9940 9940 9940 9940 9939 9939 9939 9939 9939 9939 9940 9940 9941 9941 9941 9941 9942 9943 9943 9943 9944 9944 9945 9946 9947 9948 9949 9949 9951 9951 9953 9954 9954 9956 9958 9959 9960 9961 9963 9964 9966 9967 9969 9971 9973 9974 9976 9978 9981 9983 9985 9987 9989 9991 9993 9995 9997 9999 10001 10003 10005 10008 10009 10012
9958 9956 9955 9954 9953 9951 9950 9949 9948 9948 9946 9946 9944 9944 9943 9943 9942 9941 9941 9940 9940 9940 9939 9939 9939 9939 9939 9939 9939 9939 9939 9939 9939 9939 9939 9940 9940 9941 9941 9941 9942 9943 9943 9944 9944 9945 9946 9947 9948 9949 9949 9951 9951 9953 9954 9955 9956 9958 9959 9960 9961 9963 9964 9966 9967 9969 9971 9973 9974 9977 9979 9981 9983 9985 9987 9989 9991 9993 9995 9997 9999 10001 10004 10006 10008 10010
9956 9955 9954 9953 9951 9950 9949 9948 9948 9946 9946 9944 9944 9943 9943 9942 9941 9941 9940 9939 9939 9939 9939 9938 9938 9938 9938 9938 9938 9938 9938 9938 9938 9938 9939 9939 9939 9939 9940 9941 9941 9941 9942 9943 9943 9944 9945 9946 9946 9948 9949 9949 9951 9951 9953 9954 9955 9956 9958 9959 9960 9961 9963 9964 9966 9968 9969 9971 9973 9975 9977 9979 9981 9983 9985 9987 9989 9991 9993 9995 9998 9999 10002 10004 10006 10009
9955 9954 9953 9951 9950 9949 9948 9948 9946 9946 9945 9944 9943 9943 9942 9941 9941 9940 9939 9939 9939 9938 9938 9938 9938 9938 9938 9938 9937 9938 9938 9938 9938 9938 9938 9938 9938 9939 9939 9939 9940 9941 9941 9942 9943 9943 9944 9944 9946 9946 9948 9949 9949 9951 9952 9953 9954 9955 9956 9958 9959 9960 9961 9963 9964 9966 9968 9969 9971 9973 9976 9978 9979 9981 9983 9984 9986 9989 9991 9993 9995 9998 10000 10003 10004 10007
9954 9953 9951 9951 9949 9948 9948 9946 9946 9945 9944 9943 9943 9942 9941 9941 9939 9939 9939 9938 9938 9938 9938 9937 9937 9937 9937 9937 9937 9937 9937 9937 9937 9937 9938 9938 9938 9938 9939 9939 9939 9940 9941 9941 9942 9943 9943 9944 9945 9946 9946 9948 9949 9949 9951 9952 9953 9954 9955 9956 9958 9959 9960 9961 9963 9964 9966 9968 9970 9972 9974 9975 9977 9979 9981 9983 9984 9986 9989 9991 9993 9996 9999 10001 10003 10006
9953 9952 9951 9949 9949 9948 9947 9946 9945 9944 9944 9943 9942 9941 9941 9940 9939 9939 9938 9938 9938 9937 9937 9936 9936 9936 9936 9936 9936 9936 9936 9936 9936 9937 9937 9937 9938 9938 9938 9939 9939 9939 9940 9941 9941 9942 9943 9944 9944 9945 9946 9947 9948 9949 9949 9951 9952 9953 9954 9955 9956 9958 9959 9960 9962 9963 9965 9967 9968 9970 9971 9973 9975 9976 9978 9981 9983 9985 9988 9989 9992 9994 9998 9999 10002 10004